This is the latest recevied weather packets stored in our database for station/object SP1BMW-13. If no packets are shown the sender has not sent any weather packets the latest 10 day(s).
| Time | Temp. | Humidity | Pressure | Rain* | Wind** | Luminosity | Snow |
|---|---|---|---|---|---|---|---|
| 1777560915 | 18.89° C | 35% | 1028.3 hPa | 0 mm | 0.89 m/s, 280° | 385 W/m² | - |
| 1777560856 | 18.89° C | 37% | 1028.1 hPa | 0 mm | 0.45 m/s, 249° | 386 W/m² | - |
| 1777560795 | 18.89° C | 35% | 1028.4 hPa | 0 mm | 2.68 m/s, 30° | 391 W/m² | - |
| 1777560735 | 18.89° C | 35% | 1028.1 hPa | 0 mm | 1.79 m/s, 334° | 389 W/m² | - |
| 1777560675 | 18.89° C | 35% | 1028.1 hPa | 0 mm | 1.34 m/s, 306° | 392 W/m² | - |
| 1777560615 | 18.89° C | 37% | 1028.1 hPa | 0 mm | 0.89 m/s, 340° | 391 W/m² | - |
| 1777560560 | 18.89° C | 36% | 1028.2 hPa | 0 mm | 1.34 m/s, 323° | 376 W/m² | - |
| 1777560495 | 18.89° C | 36% | 1028.2 hPa | 0 mm | 1.34 m/s, 266° | 379 W/m² | - |
| 1777560435 | 18.89° C | 37% | 1028.1 hPa | 0 mm | 1.79 m/s, 330° | 385 W/m² | - |
| 1777560376 | 18.89° C | 37% | 1028.1 hPa | 0 mm | 0.89 m/s, 338° | 381 W/m² | - |
| 1777560315 | 18.89° C | 37% | 1028.1 hPa | 0 mm | 1.79 m/s, 321° | 380 W/m² | - |
| 1777560255 | 18.89° C | 36% | 1028.1 hPa | 0 mm | 0.89 m/s, 34° | 398 W/m² | - |
| 1777560195 | 18.89° C | 35% | 1028.3 hPa | 0 mm | 0.89 m/s, 324° | 406 W/m² | - |
| 1777560135 | 18.89° C | 35% | 1028.2 hPa | 0 mm | 0.45 m/s, 27° | 390 W/m² | - |
| 1777560075 | 18.89° C | 37% | 1028.1 hPa | 0 mm | 0.45 m/s, 346° | 401 W/m² | - |
| 1777560015 | 18.89° C | 36% | 1028.2 hPa | 0 mm | 0.45 m/s, 338° | 365 W/m² | - |
| 1777559955 | 18.89° C | 35% | 1028.1 hPa | 0 mm | 0.89 m/s, 319° | 388 W/m² | - |
| 1777559896 | 18.89° C | 36% | 1028.2 hPa | 0 mm | 0.45 m/s, 19° | 371 W/m² | - |
| 1777559835 | 18.89° C | 34% | 1028.1 hPa | 0 mm | 1.34 m/s, 299° | 353 W/m² | - |
| 1777559775 | 18.89° C | 37% | 1028.1 hPa | 0 mm | 1.34 m/s, 314° | 392 W/m² | - |
| 1777559715 | 18.89° C | 36% | 1028.3 hPa | 0 mm | 1.79 m/s, 285° | 404 W/m² | - |
| 1777559656 | 18.89° C | 36% | 1028.2 hPa | 0 mm | 2.68 m/s, 307° | 420 W/m² | - |
| 1777559595 | 18.89° C | 37% | 1028.1 hPa | 0 mm | 1.34 m/s, 314° | 422 W/m² | - |
| 1777559535 | 18.89° C | 36% | 1028.2 hPa | 0 mm | 1.79 m/s, 8° | 436 W/m² | - |
| 1777559475 | 18.89° C | 36% | 1028.4 hPa | 0 mm | 1.79 m/s, 47° | 445 W/m² | - |
* Rain latest hour (hover to see other rain measurements)
** Current wind speed in m/s (hover to see current wind gust speed)